User: anonymous   Login
Location: Caltech
(34.1382°N, 118.1253°W)
Time: 03:27:53
(UTC-07:00)
Language:

Cosmos 1937 Rocket - Orbit

View from above orbital plane
View from above orbital plane
View from above satellite
View from above satellite

Ground track
Ground track

The orbit data is extracted from the following two-line orbital elements,

1 19039U 88029B   16125.83567574  .00000058  00000-0  27553-4 0  9998
2 19039  74.0479 331.3700 0024595 246.5124 239.2834 14.38309902472149
Epoch (UTC): 04 May 2016 20:03:22
Eccentricity: 0.0024595
inclination: 74.0479°
perigee height: 746 km
apogee height: 781 km
right ascension of ascending node: 331.3700°
argument of perigee: 246.5124°
revolutions per day: 14.38309902
mean anomaly at epoch: 239.2834°
orbit number at epoch: 47214

The dashed part of the orbit path shows where the satellite is in the earth's shadow,  

DLR